TimeCST,TemperatureF,Dew PointF,Humidity,Sea Level PressureIn,VisibilityMPH,Wind Direction,Wind SpeedMPH,Gust SpeedMPH,PrecipitationIn,Events,Conditions,WindDirDegrees,DateUTC
12:53 AM,44.1,41.0,89,30.28,10.0,Calm,Calm,-,N/A,,Clear,0,2012-11-19 06:53:00
1:53 AM,46.0,41.0,83,30.28,10.0,Calm,Calm,-,N/A,,Clear,0,2012-11-19 07:53:00
2:53 AM,42.1,39.9,92,30.27,10.0,Calm,Calm,-,N/A,,Clear,0,2012-11-19 08:53:00
3:53 AM,41.0,39.0,93,30.27,9.0,Calm,Calm,-,N/A,,Clear,0,2012-11-19 09:53:00
4:53 AM,39.9,37.9,93,30.27,10.0,Calm,Calm,-,N/A,,Clear,0,2012-11-19 10:53:00
5:53 AM,39.0,37.0,93,30.27,8.0,Calm,Calm,-,N/A,,Clear,0,2012-11-19 11:53:00
6:53 AM,41.0,39.0,93,30.28,10.0,Calm,Calm,-,N/A,,Clear,0,2012-11-19 12:53:00
7:53 AM,50.0,45.0,83,30.29,10.0,Calm,Calm,-,N/A,,Clear,0,2012-11-19 13:53:00
8:53 AM,57.0,46.9,69,30.28,10.0,East,5.8,-,N/A,,Clear,80,2012-11-19 14:53:00
9:53 AM,63.0,48.9,60,30.28,10.0,Calm,Calm,-,N/A,,Clear,0,2012-11-19 15:53:00
10:53 AM,66.9,50.0,54,30.27,10.0,Variable,3.5,-,N/A,,Clear,0,2012-11-19 16:53:00
11:53 AM,70.0,48.9,47,30.24,10.0,NE,4.6,-,N/A,,Clear,50,2012-11-19 17:53:00
12:53 PM,72.0,48.0,43,30.21,10.0,Variable,4.6,-,N/A,,Clear,0,2012-11-19 18:53:00
1:53 PM,72.0,48.0,43,30.20,10.0,Variable,6.9,-,N/A,,Clear,0,2012-11-19 19:53:00
2:53 PM,71.1,45.0,39,30.19,10.0,NNW,10.4,-,N/A,,Clear,330,2012-11-19 20:53:00
3:53 PM,69.1,44.1,40,30.19,10.0,NNW,6.9,-,N/A,,Clear,340,2012-11-19 21:53:00
4:53 PM,63.0,46.0,54,30.18,10.0,NNW,3.5,-,N/A,,Clear,340,2012-11-19 22:53:00
5:53 PM,53.1,46.9,80,30.19,10.0,Calm,Calm,-,N/A,,Clear,0,2012-11-19 23:53:00
6:53 PM,48.9,46.0,90,30.20,10.0,Calm,Calm,-,N/A,,Clear,0,2012-11-20 00:53:00
7:53 PM,46.0,43.0,89,30.21,10.0,Calm,Calm,-,N/A,,Clear,0,2012-11-20 01:53:00
8:53 PM,44.1,42.1,93,30.21,10.0,North,3.5,-,N/A,,Clear,350,2012-11-20 02:53:00
9:53 PM,43.0,41.0,93,30.20,10.0,Calm,Calm,-,N/A,,Clear,0,2012-11-20 03:53:00
10:53 PM,42.1,39.9,92,30.19,10.0,Calm,Calm,-,N/A,,Clear,0,2012-11-20 04:53:00
11:53 PM,42.1,39.0,89,30.18,10.0,Calm,Calm,-,N/A,,Clear,0,2012-11-20 05:53:00